Location: Lecco
(45.8566°N, 9.3977°E)
Time: 13:18:36
(UTC+02:00)

Explorer 11/Cluster Stage 4 - Pass Details

Date: 22 August 2020
Orbit: 467 x 1258 km, 28.8° (Epoch: 24 September)

Event Time Altitude Azimuth Distance (km) Brightness Sun altitude
Rises 18:50:25 0° 214° (SW) 3,077 10.1 14.2°
Reaches altitude 10° 18:54:28 10° 182° (S) 2,363 9.1 13.5°
Maximum altitude 18:56:19 12° 162° (SSE) 2,342 8.9 13.2°
Drops below altitude 10° 18:58:18 10° 143° (SE) 2,553 8.9 12.8°
Sets 19:03:13 0° 114° (ESE) 3,728 9.5 12.0°
